Location: Bannatyne
(13.0833°N, 59.5333°W)
Time: 15:38:46
(UTC+00:00)

deb Explorer IX - Pass Details

Date: 27 January 2020
Orbit: 549 x 1099 km, 38.8° (Epoch: 23 February)

Event Time Altitude Azimuth Distance (km) Brightness Sun altitude
Rises 09:05:54 0° 294° (WNW) 3,718 - -19.3°
Reaches altitude 10° 09:09:00 10° 285° (WNW) 2,688 - -18.5°
Exits shadow 09:12:24 25° 260° (W) 1,748 ? -17.7°
Maximum altitude 09:14:35 31° 225° (SW) 1,473 ? -17.2°
Drops below altitude 10° 09:19:30 10° 163° (SSE) 2,345 ? -16.1°
Sets 09:22:03 0° 153° (SSE) 3,179 ? -15.5°
